Tracking 29892 objects as of 21-Nov-2024
HD Live streaming from Space Station
objects crossing your sky now

STARLINK-31236

Track STARLINK-31236 now!
10-day predictions
STARLINK-31236 is classified as:


NORAD ID: 58841
Int'l Code: 2024-017R
Perigee: 469.4 km
Apogee: 471.3 km
Inclination: 53.2 °
Period: 93.9 minutes
Semi major axis: 6841 km
RCS: Unknown
Launch date: January 24, 2024
Source: United States (US)
Launch site: AIR FORCE WESTERN TEST RANGE (AFWTR)
Your satellite tracking list
Your tracking list is empty




NASA's NSSDC Master Catalog

Two Line Element Set (TLE):
1 58841U 24017R   24325.20710899  .00000529  00000-0  26909-4 0  9998
2 58841  53.1631 255.1350 0001381  94.1945 265.9215 15.34229173 47315
Source of the keplerian elements: AFSPC